Wetbulb
43.97 43.41 43.44 43.36 43.31 43.13 42.81 43.00 43.59 43.47 43.74 44.31 44.37 44.12 43.82 43.79 43.91 39.04 37.06 41.18 36.94 32.75 33.33 37.23 37.27 33.55 34.86 33.97 29.87 33.56 30.91 30.39 25.53 18.38 21.19 18.73 20.57 22.64 21.87 25.01 23.53 22.01 21.35 22.49 24.35 21.29 17.65 36.69 34.88 29.04 32.53 36.74 37.53 40.00
43.83 43.68 43.44 43.17 42.94 42.93 42.54 42.68 42.91 43.30 42.91 43.43 43.46 43.70 43.73 43.19 42.61 41.73 36.84 40.80 41.14 32.57 34.16 39.67 39.56 40.28 38.44 37.85 34.41 33.14 32.19 32.68 32.27 23.86 23.40 23.61 21.34 20.65 22.29 18.19 27.95 19.57 25.46 23.58 25.68 24.67 34.44 37.17 35.68 37.47 38.50 37.07 37.12 39.11
43.51 43.31 43.32 43.03 43.03 43.05 42.92 42.50 42.68 42.91 42.99 42.64 42.96 43.34 43.61 43.79 43.38 41.88 39.67 40.36 39.20 33.62 32.07 32.74 33.25 38.90 41.38 39.10 38.94 29.40 31.92 35.70 32.19 34.16 27.91 24.06 20.44 22.77 17.14 20.00 23.38 27.33 31.87 25.41 26.37 29.71 32.81 36.32 38.65 39.41 40.27 40.92 41.46 42.90
43.26 43.19 43.05 42.89 43.04 42.95 42.80 42.93 42.91 42.92 42.84 42.70 42.71 42.97 43.14 43.42 43.78 43.31 37.89 40.53 38.36 34.45 21.93 28.16 39.69 36.37 39.88 39.47 38.15 37.14 35.49 36.79 36.35 34.85 26.77 24.18 22.40 27.73 21.25 24.32 22.48 25.52 28.88 26.21 27.14 30.90 34.09 35.96 37.53 37.01 40.40 41.28 41.24 41.78
43.10 43.06 42.86 42.80 42.85 42.81 42.86 42.91 42.83 42.76 42.78 42.50 42.24 42.46 42.47 42.61 42.55 40.05 37.62 38.32 39.23 32.54 25.66 25.35 34.38 36.91 38.56 37.71 36.87 36.32 34.80 32.76 31.00 28.16 24.46 22.93 26.34 25.02 25.96 25.08 23.08 28.39 26.06 23.18 22.83 31.59 32.08 33.44 37.60 39.98 39.90 39.61 41.58 39.69
43.24 43.05 42.80 42.67 42.74 42.60 42.77 42.80 42.46 42.55 42.34 42.65 42.16 41.85 42.05 42.89 42.82 36.29 29.59 35.97 38.23 36.65 26.55 19.87 33.69 34.65 36.83 36.76 35.66 33.58 33.06 31.42 29.90 27.53 26.62 28.68 31.93 25.62 18.92 18.73 27.74 30.96 32.50 33.07 29.96 34.60 35.89 37.98 40.15 40.44 39.47 41.47 40.87 38.28
43.25 43.08 42.92 42.61 42.63 42.44 42.47 42.81 42.81 42.53 42.30 42.12 42.34 42.12 42.38 42.45 37.93 31.50 28.25 37.44 41.88 38.38 29.64 22.06 22.95 33.80 36.26 35.49 33.69 32.82 33.31 30.39 29.19 26.84 25.35 26.20 26.95 27.36 19.94 21.09 28.73 31.93 33.22 33.85 35.63 35.61 31.61 35.70 34.00 41.12 39.67 37.94 39.65 37.58
43.00 42.91 42.66 42.51 42.56 42.54 42.56 42.62 42.55 42.04 42.07 41.86 42.03 41.95 41.91 41.69 39.78 34.96 37.17 41.41 41.57 36.60 32.89 20.38 21.53 25.43 35.45 27.26 26.87 33.83 27.89 30.31 28.95 26.47 26.97 25.34 27.00 26.70 22.58 27.76 31.31 33.54 34.30 34.62 34.98 36.37 35.98 38.01 39.32 37.86 38.07 37.45 36.36 33.93
42.86 42.67 42.31 42.33 42.37 42.28 42.09 42.18 42.10 41.78 41.79 41.61 41.35 40.18 39.05 36.55 32.95 34.33 42.31 42.26 40.39 34.70 26.90 23.88 22.30 19.72 33.91 30.33 32.42 31.45 31.63 21.85 30.69 23.61 24.58 27.30 23.16 22.60 27.28 29.21 30.96 33.05 33.41 35.42 37.81 38.08 38.02 37.80 36.57 37.08 36.78 35.97 33.55 31.37
42.39 42.28 42.13 41.96 42.01 42.20 42.23 42.12 41.75 41.77 41.99 41.32 38.61 32.21 29.60 33.93 40.25 40.58 35.52 31.80 32.04 30.98 31.80 25.38 27.66 22.21 30.37 30.07 30.40 29.42 26.29 23.96 17.72 24.68 28.96 22.65 23.56 30.28 32.27 33.87 35.06 35.55 36.31 36.84 35.53 33.71 34.53 35.67 36.20 36.50 35.56 34.71 31.52 30.87
42.00 41.95 41.98 42.01 41.49 41.02 40.87 40.82 40.86 41.02 40.53 37.14 31.45 31.17 38.77 41.69 37.65 33.46 28.09 27.15 26.70 24.10 27.37 27.22 27.50 24.87 33.27 26.27 27.59 30.95 23.54 23.08 18.79 23.53 23.10 23.07 22.89 28.60 33.00 33.40 35.27 36.01 36.10 36.30 36.52 37.45 38.89 37.59 36.81 35.70 35.20 32.15 31.86 31.14
40.96 41.26 40.89 40.49 40.17 40.53 41.63 42.55 42.89 41.44 36.65 35.79 37.48 40.28 39.00 34.49 31.65 27.91 25.02 26.55 25.90 23.32 28.93 26.38 25.95 28.70 32.63 35.77 29.95 28.66 25.76 26.54 21.32 30.56 25.34 21.20 26.27 34.15 35.23 35.36 36.09 37.00 36.35 36.27 36.79 36.38 37.51 36.87 36.70 35.90 34.12 32.06 31.80 31.42
40.85 40.73 40.36 41.05 42.60 42.74 42.71 42.58 43.38 42.47 41.83 38.94 35.54 31.85 30.90 30.55 25.51 22.16 19.39 23.58 23.51 28.72 31.13 29.21 23.74 30.72 33.55 35.39 29.19 30.07 20.58 22.22 31.40 26.37 22.53 24.03 32.30 34.31 34.61 34.83 35.07 35.58 34.72 35.15 37.44 37.39 36.91 35.11 35.00 34.58 32.43 32.07 32.02 27.95
41.02 41.22 42.02 43.16 43.02 42.03 42.29 43.20 43.70 42.05 39.21 33.78 30.75 26.01 25.48 24.77 25.27 26.78 26.92 26.46 29.19 31.18 31.75 30.89 28.32 28.58 29.47 29.58 28.62 25.53 26.67 27.66 20.39 13.74 20.08 28.31 30.12 29.75 32.62 31.98 32.02 32.47 32.35 31.54 32.00 34.84 34.36 33.81 33.01 32.78 32.68 30.18 27.21 24.45
41.36 41.83 42.88 42.78 42.81 42.41 42.90 43.02 43.64 41.64 37.84 31.80 32.50 25.68 25.91 29.48 31.96 31.67 32.38 32.06 33.51 35.24 33.62 30.56 29.32 30.53 28.36 26.29 27.30 26.37 24.52 19.88 21.45 21.67 28.28 30.22 29.93 29.08 29.87 31.15 31.82 31.71 32.07 32.06 32.75 32.63 32.66 32.42 30.59 28.16 27.89 26.81 24.16 21.08
42.56 42.57 41.51 42.41 41.95 42.40 43.46 42.83 41.25 40.39 36.08 33.91 32.22 28.80 30.45 30.27 31.80 30.34 31.07 32.21 35.49 34.20 34.60 31.92 28.24 25.47 26.14 26.85 25.71 22.66 23.82 20.61 25.11 28.71 29.43 30.43 28.34 28.91 30.08 31.10 31.18 31.58 31.73 31.73 32.04 31.58 30.26 28.81 26.92 25.30 23.89 21.77 20.45 20.20
41.89 39.35 42.59 42.61 42.49 42.79 42.93 39.18 39.51 36.50 32.00 30.40 29.96 31.97 31.03 30.45 31.61 32.00 30.32 28.81 34.12 32.49 27.62 28.67 22.99 25.39 26.77 24.66 25.18 27.03 23.48 27.62 29.37 28.39 29.51 29.06 28.01 27.99 29.69 28.98 29.60 29.71 29.97 29.56 29.38 28.66 28.11 27.03 25.15 23.21 20.02 17.89 17.86 15.39
39.19 41.97 41.81 42.74 41.67 41.33 40.10 39.16 36.77 33.46 29.30 30.67 28.68 31.06 31.79 31.44 31.05 31.69 33.10 32.39 31.41 29.77 30.58 28.39 29.87 27.31 22.10 24.49 22.81 27.62 28.67 29.47 29.93 27.77 25.77 25.56 28.03 28.72 30.03 29.74 29.40 29.28 26.56 24.58 26.90 26.75 26.32 25.19 23.48 21.45 20.64 19.92 17.56 14.53
41.48 38.28 41.33 42.89 42.32 39.49 34.67 35.66 36.59 29.19 27.06 30.08 31.17 31.37 30.28 31.41 31.95 32.36 32.92 33.73 34.32 35.13 29.03 28.37 25.54 25.48 25.35 27.36 26.41 24.27 26.27 27.82 27.10 28.07 27.97 27.28 27.84 28.40 26.65 28.02 26.79 26.93 25.08 25.07 26.40 26.87 26.85 26.84 24.85 23.00 22.64 21.00 18.93 18.11
41.39 41.13 40.02 41.93 41.31 36.94 34.12 32.93 37.44 31.38 29.44 29.24 29.55 30.53 28.98 29.96 31.44 31.85 32.36 31.99 32.41 30.60 28.05 26.42 24.68 26.51 25.80 27.76 28.47 27.94 28.96 29.35 27.68 23.93 26.48 20.46 24.40 26.44 26.98 25.34 23.93 25.82 25.40 25.44 26.51 26.84 28.15 26.01 26.42 24.97 23.30 22.52 19.58 18.74
39.06 39.74 39.62 38.48 37.51 38.04 34.03 31.49 31.06 31.77 30.27 30.27 30.49 31.23 28.64 31.44 30.88 30.87 30.32 31.90 27.46 26.81 24.23 25.35 25.24 26.01 27.91 29.64 29.84 29.63 28.60 27.72 28.09 28.00 27.38 23.26 26.87 26.81 26.47 27.69 28.44 27.93 25.38 24.64 25.63 27.86 27.58 26.87 26.83 25.57 24.34 23.52 20.86 21.66
39.29 37.94 37.64 38.85 35.92 35.15 32.19 33.19 32.09 31.85 31.86 29.37 30.53 31.95 27.72 27.01 27.57 27.69 30.58 27.72 26.38 26.31 26.84 26.73 26.81 29.23 26.43 27.69 27.47 27.93 29.93 28.05 27.17 26.91 26.48 26.34 25.39 25.59 26.47 27.51 27.52 27.38 25.60 25.78 26.27 26.79 27.12 25.71 25.31 24.03 23.04 26.83 24.54 21.77
37.42 37.29 35.04 34.79 30.43 29.43 26.87 33.63 29.11 29.85 25.81 27.23 29.62 28.39 26.23 26.94 27.22 30.52 23.38 26.01 24.80 26.50 27.47 26.90 26.94 29.02 27.13 28.18 27.79 28.94 30.97 29.63 28.30 28.12 27.37 27.01 28.62 28.49 28.47 28.40 29.01 28.80 27.55 27.01 27.94 28.19 26.92 24.45 22.58 22.57 26.67 26.94 26.27 22.22
37.71 32.05 28.01 27.57 29.10 25.94 28.85 24.75 31.08 28.87 28.18 26.88 26.89 23.13 25.68 25.26 27.65 26.42 22.87 23.35 24.13 26.39 26.85 26.11 28.12 26.95 28.77 28.08 26.75 26.24 27.95 30.37 28.69 29.95 29.81 28.47 27.69 27.89 28.65 28.51 28.95 28.95 29.08 28.55 28.44 27.46 26.86 25.58 23.72 26.03 26.41 25.76 25.69 24.46
24.98 23.97 25.47 21.04 27.02 23.53 22.04 22.38 23.56 25.68 18.22 22.92 22.35 21.10 23.16 26.69 21.41 21.72 21.48 21.81 23.09 23.71 27.44 27.08 28.25 29.36 26.40 26.06 25.90 24.85 26.75 28.22 27.96 26.51 28.64 27.98 26.52 26.53 26.08 25.36 26.40 25.41 26.18 28.52 27.83 26.62 26.54 26.53 26.00 25.68 25.49 24.93 24.31 24.34
16.57 23.53 21.61 25.62 24.45 22.00 23.24 18.89 19.54 21.60 22.43 18.48 19.91 24.17 24.80 21.92 17.04 16.08 22.58 22.51 25.14 25.83 26.62 23.88 25.15 23.99 24.12 24.74 23.75 25.11 24.71 28.68 29.68 27.08 27.65 28.94 28.34 27.58 26.81 26.09 25.20 24.01 24.65 27.64 27.61 26.84 25.71 25.47 24.85 24.33 24.82 24.57 24.82 24.75
15.64 22.53 27.32 29.65 27.86 27.24 24.36 24.34 27.25 24.38 18.59 17.12 21.37 19.61 20.01 15.36 13.35 18.53 21.89 23.40 22.94 24.58 26.17 26.85 26.25 25.93 24.01 24.69 25.77 26.45 27.16 27.94 27.68 27.75 28.58 28.60 28.38 28.48 27.32 25.53 24.60 24.80 27.32 27.14 27.48 27.18 25.83 22.36 20.77 21.25 22.71 24.07 24.10 23.81
22.39 24.78 18.59 22.52 25.52 27.18 23.51 23.09 19.12 18.44 22.22 23.90 24.38 19.49 15.35 15.12 14.12 16.65 19.01 21.13 21.51 23.00 23.98 25.00 25.21 24.16 23.47 24.63 24.60 24.44 25.26 26.01 26.98 27.43 28.09 27.71 27.19 26.54 26.82 26.86 26.11 24.47 27.03 26.82 26.86 26.86 25.90 22.63 22.15 22.00 19.69 19.11 19.15 21.93
24.92 25.38 24.51 22.43 19.54 24.12 23.81 23.02 23.61 21.43 20.50 20.80 20.41 17.68 12.26 14.92 16.23 17.48 17.86 17.70 18.84 20.68 23.51 22.45 22.15 25.29 24.79 24.10 24.13 23.89 23.60 23.09 24.93 24.36 24.79 22.63 19.04 15.75 25.56 27.12 26.83 26.86 27.04 25.68 25.84 25.91 25.85 25.80 25.66 23.84 21.98 20.36 21.97 22.11
21.03 23.84 20.18 21.29 14.58 13.74 19.29 17.47 18.96 19.29 19.28 17.27 16.48 15.50 13.88 11.79 12.26 14.99 17.09 17.56 17.51 21.85 23.42 21.18 20.77 24.34 23.07 20.12 18.50 19.88 22.34 21.98 20.25 19.23 15.91 15.66 16.78 20.42 25.51 25.63 26.83 27.83 27.93 27.73 25.55 23.63 24.64 24.18 23.34 18.84 18.06 18.68 19.36 23.05
22.07 23.46 21.08 21.61 18.64 21.42 22.63 17.97 17.06 18.16 18.33 17.17 17.84 16.73 12.75 10.82 12.14 14.20 14.49 16.39 18.17 16.47 15.90 16.60 19.00 20.09 17.96 18.09 19.31 17.51 16.12 20.53 21.29 21.44 21.69 22.05 23.84 23.84 24.60 25.33 26.24 26.76 27.52 24.80 26.41 24.68 22.26 23.31 23.89 23.29 23.30 21.13 18.94 19.28
16.56 14.68 19.00 16.90 18.49 21.77 18.50 17.65 17.39 16.39 14.77 12.60 12.65 11.08 11.17 12.32 10.99 12.11 13.97 15.07 16.75 16.55 16.84 18.86 15.76 15.76 16.13 17.16 18.63 15.80 19.45 19.28 20.29 20.09 18.34 17.07 17.46 17.48 22.27 23.53 25.51 26.29 25.90 24.20 20.90 20.59 24.00 19.47 19.84 23.03 20.13 18.79 20.24 19.79
15.44 17.30 17.89 14.80 14.29 17.99 17.28 15.09 18.26 18.50 17.64 18.73 14.20 11.39 12.18 13.43 8.10 9.12 11.49 15.23 15.28 17.68 16.93 17.69 16.80 15.77 17.14 17.50 18.22 19.48 21.05 13.95 14.88 19.43 11.28 9.35 6.27 7.91 10.83 15.76 19.95 21.38 19.13 18.32 20.44 20.31 19.53 16.85 18.53 18.95 17.52 16.30 14.29 13.19
MSLP
1011.03 1011.37 1011.71 1012.06 1012.38 1012.63 1012.82 1012.93 1012.99 1013.09 1013.13 1013.20 1013.34 1013.53 1013.80 1014.10 1014.43 1015.17 1015.47 1015.35 1015.37 1014.65 1013.40 1012.79 1012.71 1012.28 1011.47 1011.18 1011.18 1011.18 1012.24 1013.11 1013.63 1014.35 1015.08 1015.12 1014.64 1013.86 1013.63 1013.03 1012.84 1013.01 1013.27 1013.37 1013.33 1012.53 1011.56 1010.14 1009.96 1010.17 1010.07 1009.58 1009.68 1009.14
1010.72 1011.06 1011.44 1011.83 1012.15 1012.39 1012.56 1012.65 1012.77 1012.86 1012.94 1013.02 1013.14 1013.36 1013.73 1014.14 1014.48 1014.79 1014.90 1014.65 1014.84 1014.69 1013.13 1012.30 1011.75 1011.29 1010.77 1010.25 1011.04 1012.08 1012.74 1012.64 1013.23 1013.99 1014.71 1014.73 1014.22 1013.78 1013.23 1013.30 1012.58 1012.73 1012.72 1012.83 1012.83 1011.85 1010.56 1010.22 1010.16 1009.72 1009.94 1009.56 1009.20 1009.95
1010.48 1010.81 1011.21 1011.58 1011.89 1012.15 1012.36 1012.56 1012.70 1012.80 1012.92 1013.03 1013.18 1013.39 1013.63 1013.94 1014.27 1014.45 1014.34 1014.35 1014.16 1013.77 1012.75 1012.07 1011.25 1010.76 1010.39 1010.36 1010.73 1011.49 1011.86 1012.12 1012.82 1013.44 1014.42 1014.47 1014.16 1013.83 1013.64 1013.14 1012.82 1012.24 1012.09 1012.10 1012.05 1011.01 1010.45 1009.92 1009.68 1009.75 1009.59 1008.74 1008.71 1009.09
1010.26 1010.64 1011.02 1011.35 1011.63 1011.92 1012.21 1012.47 1012.67 1012.82 1012.97 1013.12 1013.29 1013.47 1013.63 1013.78 1013.98 1014.22 1014.45 1014.16 1014.25 1013.87 1013.47 1011.94 1010.88 1010.68 1010.35 1009.87 1010.10 1010.66 1011.32 1011.70 1012.48 1013.55 1014.37 1014.55 1014.08 1013.28 1013.27 1013.09 1012.63 1012.47 1012.28 1011.72 1011.05 1010.52 1010.01 1009.73 1009.35 1009.42 1009.39 1009.04 1008.85 1009.36
1010.07 1010.47 1010.83 1011.16 1011.44 1011.71 1012.00 1012.26 1012.54 1012.82 1013.06 1013.25 1013.41 1013.58 1013.72 1013.87 1013.99 1014.11 1014.14 1013.89 1013.83 1014.40 1014.04 1012.99 1011.66 1010.53 1010.19 1010.23 1010.44 1010.75 1011.43 1012.13 1012.82 1013.40 1013.91 1014.14 1013.42 1013.38 1013.20 1012.78 1011.98 1011.87 1011.55 1011.52 1010.57 1010.39 1010.09 1009.77 1009.50 1009.36 1009.23 1009.05 1008.61 1009.00
1009.79 1010.23 1010.61 1010.93 1011.20 1011.48 1011.80 1012.12 1012.45 1012.76 1013.02 1013.27 1013.48 1013.66 1013.79 1013.90 1014.02 1014.48 1014.67 1013.75 1013.63 1013.87 1014.45 1013.83 1011.82 1010.75 1010.21 1010.15 1010.47 1010.76 1011.36 1011.89 1012.54 1013.03 1013.27 1013.01 1012.35 1012.78 1012.97 1011.62 1010.54 1010.47 1010.15 1009.98 1009.61 1009.39 1009.36 1009.21 1008.82 1009.02 1008.99 1008.87 1008.68 1009.09
1009.49 1009.94 1010.33 1010.67 1011.01 1011.34 1011.68 1011.98 1012.28 1012.57 1012.84 1013.11 1013.33 1013.53 1013.66 1013.81 1014.23 1014.58 1014.44 1014.29 1013.92 1013.86 1014.60 1013.89 1012.25 1010.41 1009.89 1010.08 1010.48 1010.74 1010.96 1011.64 1012.14 1012.65 1012.73 1012.74 1012.48 1012.17 1011.64 1010.60 1009.82 1009.77 1009.17 1008.67 1008.42 1008.35 1008.64 1008.75 1008.82 1008.65 1009.09 1009.02 1008.88 1009.62
1009.21 1009.65 1010.07 1010.45 1010.79 1011.12 1011.43 1011.74 1012.01 1012.28 1012.57 1012.83 1013.10 1013.34 1013.54 1013.73 1014.02 1014.13 1013.79 1013.88 1013.77 1014.26 1014.37 1013.82 1012.09 1010.94 1009.91 1010.42 1010.96 1010.83 1011.24 1011.63 1011.95 1012.36 1012.02 1011.96 1011.76 1011.39 1010.29 1008.88 1008.69 1008.17 1007.67 1007.29 1007.17 1007.42 1007.86 1008.29 1008.78 1009.11 1009.26 1009.62 1009.94 1010.53
1008.99 1009.43 1009.86 1010.24 1010.53 1010.79 1011.11 1011.43 1011.70 1011.98 1012.27 1012.56 1013.04 1013.63 1014.05 1014.03 1013.78 1013.23 1013.31 1013.60 1014.18 1014.96 1014.08 1013.22 1012.17 1011.38 1010.58 1010.75 1011.08 1011.10 1011.26 1011.82 1011.54 1011.47 1011.23 1011.16 1010.45 1009.25 1008.10 1007.65 1007.15 1006.38 1006.24 1006.30 1006.60 1007.05 1007.23 1007.98 1008.65 1008.98 1009.77 1010.33 1010.98 1011.61
1008.94 1009.34 1009.71 1010.02 1010.25 1010.48 1010.70 1010.99 1011.30 1011.55 1011.91 1012.53 1013.48 1013.70 1013.21 1012.59 1012.43 1012.83 1013.63 1013.98 1014.09 1014.02 1013.58 1012.64 1011.34 1011.22 1010.93 1010.75 1010.82 1011.17 1011.08 1011.26 1011.09 1010.23 1009.88 1009.72 1008.38 1006.97 1006.57 1006.04 1005.54 1005.32 1005.17 1005.59 1006.37 1006.53 1007.47 1008.14 1008.68 1009.18 1009.67 1010.55 1011.15 1011.96
1008.94 1009.24 1009.50 1009.73 1009.95 1010.15 1010.31 1010.49 1010.75 1011.11 1011.78 1012.05 1012.16 1011.94 1011.54 1011.63 1011.96 1012.48 1012.61 1012.75 1012.91 1012.64 1011.80 1010.71 1010.43 1010.29 1010.03 1010.46 1010.75 1010.86 1010.51 1010.28 1009.85 1008.89 1009.00 1008.27 1006.57 1004.83 1004.56 1004.84 1004.71 1004.48 1004.42 1004.51 1004.88 1005.55 1006.05 1006.70 1007.86 1008.80 1009.71 1010.65 1011.54 1012.36
1008.82 1009.01 1009.23 1009.42 1009.53 1009.58 1009.49 1009.48 1009.64 1010.03 1010.48 1010.73 1010.74 1010.86 1011.30 1011.32 1011.14 1011.34 1011.25 1010.99 1010.84 1009.98 1008.86 1008.74 1008.47 1008.98 1009.50 1009.83 1010.06 1009.96 1009.68 1009.38 1008.66 1008.01 1008.38 1007.31 1005.91 1004.56 1004.09 1004.23 1004.50 1004.39 1004.33 1004.22 1004.18 1004.34 1005.32 1006.53 1007.55 1008.41 1009.48 1010.61 1011.60 1012.56
1008.64 1008.74 1008.90 1008.89 1008.73 1008.67 1008.66 1008.66 1008.65 1009.03 1009.74 1010.49 1010.38 1010.43 1010.51 1010.25 1009.90 1009.59 1009.09 1008.58 1008.13 1007.37 1006.60 1006.92 1007.59 1008.30 1009.11 1009.19 1009.33 1009.15 1008.94 1008.30 1007.89 1007.59 1007.73 1006.80 1006.45 1005.78 1005.58 1005.38 1005.25 1004.96 1004.36 1003.64 1002.79 1003.37 1004.79 1006.23 1007.53 1008.47 1009.62 1010.63 1011.62 1012.75
1008.36 1008.39 1008.29 1008.15 1008.11 1008.12 1007.91 1007.77 1007.96 1008.65 1009.24 1009.40 1009.40 1009.40 1009.35 1008.71 1007.92 1006.93 1006.40 1006.06 1005.91 1005.71 1006.00 1006.59 1007.19 1007.98 1008.33 1008.71 1008.63 1008.49 1007.86 1007.30 1007.50 1007.47 1007.30 1007.39 1007.36 1007.14 1006.77 1006.63 1006.25 1005.82 1005.43 1004.73 1004.08 1004.01 1005.32 1006.66 1007.91 1008.96 1009.86 1010.70 1011.79 1013.13
1008.04 1008.01 1007.86 1007.71 1007.62 1007.46 1007.24 1007.02 1007.35 1008.31 1008.41 1008.24 1008.39 1007.84 1007.47 1006.72 1006.29 1006.03 1005.56 1005.16 1004.82 1004.96 1005.52 1006.56 1007.12 1007.36 1007.70 1008.08 1007.96 1007.80 1007.74 1007.39 1007.12 1007.08 1007.42 1007.74 1007.71 1007.62 1007.41 1007.23 1007.03 1006.76 1006.52 1006.31 1006.21 1006.35 1006.99 1007.78 1008.67 1009.68 1010.55 1011.32 1012.39 1013.70
1007.67 1007.60 1007.41 1007.22 1007.26 1007.15 1007.08 1007.34 1007.90 1007.96 1008.02 1007.72 1007.54 1007.23 1006.88 1006.64 1006.55 1006.33 1005.95 1005.57 1004.91 1005.34 1005.49 1006.07 1006.63 1007.00 1007.14 1007.05 1007.25 1007.14 1007.04 1006.95 1007.37 1007.63 1007.98 1008.05 1008.12 1008.10 1007.90 1007.84 1007.68 1007.43 1007.28 1007.31 1007.37 1007.59 1008.08 1008.83 1009.52 1010.42 1011.37 1012.25 1013.26 1014.00
1007.59 1007.42 1007.00 1007.10 1007.33 1007.34 1007.50 1007.78 1007.38 1007.30 1007.38 1007.42 1007.30 1007.33 1007.30 1007.19 1006.83 1006.53 1006.26 1005.68 1005.15 1005.47 1005.97 1006.06 1006.40 1006.17 1006.28 1006.74 1006.97 1006.92 1007.45 1007.71 1007.84 1008.16 1008.31 1008.55 1008.83 1008.77 1008.58 1008.40 1008.27 1008.14 1008.11 1008.12 1008.29 1008.65 1009.02 1009.70 1010.41 1011.21 1012.27 1013.42 1014.15 1014.85
1007.67 1007.16 1007.04 1007.17 1007.35 1007.32 1007.14 1007.17 1006.75 1006.93 1007.00 1007.03 1007.22 1007.21 1007.29 1007.24 1006.95 1006.74 1006.41 1006.00 1005.79 1005.82 1005.67 1005.84 1005.82 1006.26 1006.65 1007.04 1007.66 1008.07 1008.26 1008.34 1008.48 1008.64 1008.93 1008.97 1009.02 1008.81 1008.63 1008.60 1008.64 1008.63 1008.81 1008.97 1009.13 1009.49 1009.91 1010.42 1011.09 1012.04 1012.89 1013.80 1014.73 1015.60
1007.06 1007.07 1006.87 1007.02 1007.11 1007.07 1007.14 1006.82 1006.55 1006.64 1006.77 1006.88 1007.02 1007.11 1007.25 1007.20 1007.04 1006.84 1006.50 1006.05 1005.97 1005.76 1006.04 1006.26 1006.81 1007.32 1007.87 1008.28 1008.61 1008.81 1008.84 1008.96 1009.09 1009.07 1009.10 1009.21 1009.19 1009.12 1009.02 1008.97 1009.02 1009.13 1009.36 1009.56 1009.81 1010.09 1010.51 1010.89 1011.37 1012.25 1013.12 1013.97 1014.76 1015.56
1006.76 1006.71 1006.69 1006.80 1007.18 1006.96 1006.69 1006.46 1006.05 1006.35 1006.48 1006.61 1006.93 1007.07 1007.18 1007.27 1007.17 1006.95 1006.76 1006.48 1006.63 1006.47 1006.96 1007.41 1007.99 1008.44 1008.73 1009.06 1009.22 1009.28 1009.26 1009.24 1009.22 1009.12 1009.14 1009.46 1009.33 1009.33 1009.34 1009.39 1009.56 1009.68 1009.88 1010.08 1010.29 1010.52 1010.88 1011.48 1011.89 1012.44 1013.13 1013.73 1014.51 1015.15
1006.49 1006.30 1006.42 1006.69 1006.73 1006.61 1006.54 1006.14 1006.10 1006.15 1006.32 1006.58 1006.82 1007.03 1007.20 1007.26 1007.18 1007.11 1007.16 1007.09 1007.21 1007.55 1008.00 1008.36 1008.69 1009.06 1009.23 1009.45 1009.56 1009.53 1009.52 1009.46 1009.38 1009.33 1009.31 1009.58 1009.56 1009.56 1009.66 1009.79 1009.87 1010.01 1010.16 1010.41 1010.61 1010.82 1011.16 1011.52 1011.92 1012.48 1013.01 1013.52 1014.14 1014.74
1006.22 1006.19 1006.19 1006.08 1006.38 1006.44 1006.07 1005.91 1005.96 1005.99 1006.38 1006.50 1006.81 1006.88 1006.93 1007.03 1007.04 1007.17 1007.31 1007.63 1008.00 1008.38 1008.45 1008.67 1008.95 1009.24 1009.48 1009.71 1009.81 1009.71 1009.55 1009.54 1009.52 1009.54 1009.54 1009.62 1009.85 1009.92 1009.92 1009.91 1010.06 1010.29 1010.46 1010.62 1010.78 1011.01 1011.38 1011.76 1012.03 1012.44 1012.87 1013.30 1013.81 1014.38
1006.24 1006.20 1006.19 1006.48 1006.85 1006.69 1006.31 1005.81 1005.95 1005.89 1006.30 1006.39 1006.51 1006.59 1006.76 1006.84 1006.89 1006.91 1007.49 1007.93 1008.47 1008.63 1008.74 1008.97 1009.12 1009.21 1009.66 1009.90 1009.95 1009.92 1009.80 1009.67 1009.74 1009.74 1009.78 1009.83 1009.89 1009.94 1010.01 1010.01 1010.13 1010.36 1010.63 1010.85 1010.84 1011.26 1011.63 1011.93 1012.30 1012.65 1012.99 1013.40 1013.85 1014.37
1006.39 1006.66 1006.82 1006.91 1006.88 1006.64 1006.44 1006.17 1005.73 1005.71 1005.92 1006.28 1006.36 1006.50 1006.56 1006.68 1006.99 1007.27 1007.68 1008.20 1008.68 1008.84 1008.97 1009.19 1009.32 1009.61 1009.88 1010.08 1010.33 1010.44 1010.27 1010.06 1010.04 1009.97 1010.09 1010.13 1010.35 1010.45 1010.49 1010.62 1010.71 1010.69 1010.73 1011.00 1011.27 1011.62 1011.93 1012.32 1012.55 1012.87 1013.19 1013.51 1013.91 1014.38
1007.13 1007.58 1007.60 1007.04 1006.85 1006.90 1006.61 1006.20 1005.82 1005.79 1006.11 1006.13 1006.30 1006.39 1006.48 1006.80 1007.23 1007.61 1007.80 1008.46 1008.84 1009.12 1009.18 1009.28 1009.38 1009.41 1009.93 1010.36 1010.77 1010.80 1010.68 1010.54 1010.41 1010.56 1010.57 1010.52 1010.70 1010.87 1011.01 1011.16 1011.25 1011.26 1011.31 1011.46 1011.74 1011.99 1012.27 1012.50 1012.75 1013.02 1013.27 1013.52 1013.82 1014.21
1007.38 1007.59 1007.60 1007.06 1006.88 1006.90 1006.44 1006.34 1006.21 1006.02 1006.11 1006.46 1006.47 1006.42 1006.64 1007.08 1007.71 1007.95 1008.21 1008.56 1008.99 1009.32 1009.55 1009.70 1009.73 1010.06 1010.47 1010.64 1010.95 1011.06 1011.15 1010.92 1010.73 1010.91 1011.15 1010.97 1011.01 1011.10 1011.25 1011.41 1011.63 1011.86 1011.69 1011.77 1011.80 1012.02 1012.31 1012.55 1012.87 1013.13 1013.29 1013.45 1013.66 1013.94
1007.75 1007.65 1007.50 1007.28 1007.29 1007.22 1006.94 1006.60 1006.46 1006.43 1006.72 1006.69 1006.76 1007.24 1007.62 1008.27 1008.64 1009.03 1009.37 1009.57 1009.79 1010.01 1010.02 1010.09 1010.21 1010.30 1010.81 1011.10 1011.38 1011.55 1011.50 1011.37 1011.31 1011.44 1011.52 1011.58 1011.70 1011.75 1011.76 1011.88 1012.02 1012.19 1011.83 1011.86 1011.99 1012.03 1012.20 1012.55 1012.84 1013.07 1013.27 1013.26 1013.47 1013.69
1008.29 1008.29 1008.28 1008.15 1007.71 1007.52 1007.41 1007.21 1007.05 1007.12 1007.18 1007.28 1007.52 1008.05 1008.60 1009.16 1009.78 1010.40 1010.53 1010.74 1010.60 1010.50 1010.63 1010.95 1011.03 1011.15 1011.44 1011.64 1011.86 1011.90 1011.83 1011.74 1011.67 1011.76 1011.93 1012.18 1012.27 1012.31 1012.26 1012.19 1012.22 1012.22 1012.16 1012.16 1012.16 1012.17 1012.31 1012.33 1012.48 1012.71 1012.92 1013.19 1013.26 1013.46
1008.79 1008.82 1008.81 1008.29 1008.24 1007.92 1007.73 1007.84 1007.83 1008.19 1008.47 1008.46 1008.89 1009.27 1010.07 1010.81 1011.33 1011.45 1011.55 1011.47 1011.15 1011.16 1011.24 1011.42 1011.63 1011.70 1011.97 1012.21 1012.31 1012.37 1012.30 1012.06 1011.77 1011.94 1011.97 1012.40 1012.80 1012.95 1012.59 1012.36 1012.22 1012.19 1012.27 1012.38 1012.50 1012.52 1012.56 1012.56 1012.58 1012.67 1012.69 1012.83 1013.05 1013.26
1009.76 1009.52 1009.26 1008.53 1008.59 1008.23 1008.27 1008.55 1008.87 1009.05 1009.20 1009.48 1009.80 1010.38 1011.02 1011.67 1012.04 1012.13 1012.06 1011.90 1011.79 1011.48 1011.23 1011.51 1011.65 1011.79 1012.02 1012.38 1012.73 1012.93 1012.83 1012.70 1012.68 1012.78 1012.91 1013.09 1013.13 1013.05 1012.88 1012.72 1012.51 1012.34 1012.22 1012.24 1012.49 1012.67 1012.74 1012.78 1012.78 1012.85 1012.87 1013.00 1013.08 1013.22
1010.43 1009.90 1009.35 1008.72 1008.39 1008.25 1008.61 1009.08 1009.30 1009.45 1009.63 1009.78 1010.01 1010.35 1011.24 1011.99 1012.34 1012.45 1012.49 1012.32 1012.02 1011.86 1011.93 1012.04 1012.21 1012.27 1012.38 1012.61 1012.79 1013.13 1013.37 1013.41 1013.39 1013.41 1013.44 1013.47 1013.29 1013.25 1013.04 1012.90 1012.79 1012.59 1012.33 1012.24 1012.35 1012.53 1012.63 1012.74 1012.79 1012.85 1012.92 1013.09 1013.20 1013.34
1010.77 1010.28 1009.49 1008.97 1008.57 1008.76 1009.08 1009.23 1009.26 1009.30 1009.60 1009.93 1010.34 1010.96 1011.53 1012.00 1012.48 1012.80 1012.79 1012.73 1012.61 1012.51 1012.33 1012.40 1012.76 1013.13 1013.06 1013.13 1013.26 1013.42 1013.41 1013.75 1013.88 1014.02 1014.10 1014.15 1014.11 1013.99 1013.70 1013.45 1013.20 1012.95 1012.73 1012.56 1012.63 1012.64 1012.55 1012.69 1012.73 1012.70 1012.96 1013.18 1013.26 1013.53
1011.07 1010.37 1009.78 1009.46 1008.86 1008.67 1008.54 1008.63 1008.34 1008.40 1008.92 1009.34 1009.89 1010.41 1011.01 1011.63 1012.44 1013.02 1013.14 1013.06 1013.11 1012.77 1012.94 1013.01 1013.22 1013.37 1013.46 1013.52 1013.55 1013.56 1013.72 1013.99 1014.31 1014.55 1014.73 1014.81 1014.76 1014.58 1014.32 1014.12 1013.85 1013.60 1013.44 1013.52 1013.47 1013.34 1013.16 1013.06 1013.13 1013.27 1013.58 1013.89 1014.34 1014.78
Wind_Speed
10 10 10 9 8 6 7 9 8 8 8 8 8 8 8 8 11 5 2 7 4 3 5 4 3 4 3 2 2 4 5 1 2 3 4 5 4 6 5 5 3 4 4 3 2 7 13 8 12 6 3 4 7 10
10 10 10 9 8 6 7 7 6 5 4 5 6 7 12 13 15 10 3 5 6 4 4 4 7 7 7 5 5 2 2 1 2 3 2 3 1 1 4 3 2 3 4 2 4 7 6 5 11 15 8 7 3 11
9 11 10 9 8 8 7 6 4 3 4 3 5 6 11 15 13 10 0 3 2 3 4 1 5 6 4 2 2 5 2 5 1 3 1 3 2 2 3 5 4 3 3 4 4 3 5 3 6 4 14 9 5 5
9 10 10 9 9 9 7 7 6 5 4 4 5 5 5 8 11 10 2 3 2 3 0 5 6 4 8 3 3 2 1 4 1 4 3 3 3 3 3 5 4 5 3 5 12 9 6 5 5 5 9 7 6 4
11 11 10 9 8 9 8 9 8 7 5 4 3 3 3 3 3 3 3 3 2 1 2 5 9 8 9 5 7 6 4 4 2 2 3 4 3 2 3 1 5 4 7 5 8 6 11 10 5 3 5 8 6 7
12 12 11 9 8 9 9 8 8 8 7 6 5 5 5 5 2 4 4 4 2 0 2 4 5 5 6 5 5 6 5 3 4 4 4 3 3 3 3 4 4 11 15 15 15 17 13 5 10 2 8 10 5 9
13 12 11 10 9 9 8 8 7 8 8 8 8 7 7 7 3 3 4 2 7 3 1 4 4 4 7 5 1 1 2 3 4 2 3 3 2 2 2 11 12 15 20 17 13 7 2 3 4 5 8 3 9 12
13 13 12 10 10 10 9 8 9 9 9 8 8 7 6 3 1 4 3 0 3 1 2 3 5 2 1 1 1 2 2 1 1 4 2 4 2 4 7 10 10 14 17 16 15 7 6 5 3 5 5 7 10 11
12 12 11 9 10 11 10 9 10 10 10 8 5 3 3 1 3 3 6 7 4 2 3 3 2 3 3 1 1 0 3 1 4 4 4 5 4 8 7 11 14 17 15 5 5 9 7 8 8 10 10 11 10 11
11 10 9 8 9 9 10 10 10 11 12 8 2 3 4 5 5 13 3 2 3 4 4 4 2 3 4 2 3 2 2 3 2 6 4 4 9 16 15 14 12 11 10 8 9 14 7 9 11 12 14 11 11 11
9 8 9 8 8 10 12 13 14 14 14 5 4 4 1 16 3 3 4 4 4 4 5 5 11 8 3 3 4 3 3 3 2 5 7 4 5 12 18 20 18 19 18 16 12 12 15 15 15 13 12 11 12 13
8 7 7 8 11 16 20 19 17 7 4 6 3 4 3 3 3 5 6 4 6 6 5 5 5 8 3 3 3 4 4 2 5 2 2 4 4 7 5 3 5 11 11 17 18 17 13 16 15 16 15 14 13 11
6 6 9 15 15 14 11 15 15 11 12 3 3 4 4 4 6 6 8 5 5 4 4 4 1 4 3 3 3 2 2 5 3 5 4 2 8 11 10 9 7 8 10 8 11 10 16 15 14 15 15 13 14 10
7 11 13 12 8 8 14 12 14 16 3 4 5 6 5 5 6 6 5 6 6 4 5 5 3 4 4 3 3 3 6 1 2 1 3 2 4 5 8 6 7 9 10 10 8 15 17 16 13 13 13 13 13 12
10 11 10 8 10 10 8 9 20 5 3 3 4 5 6 5 1 2 4 1 1 4 4 4 2 3 2 2 3 2 2 4 4 0 2 1 3 4 5 6 6 5 5 6 6 10 12 13 12 11 11 12 12 12
9 5 5 7 5 5 8 12 2 1 1 3 4 3 2 1 1 3 3 3 2 3 2 2 4 3 5 4 3 6 3 2 1 1 1 3 5 8 5 5 4 3 3 4 5 8 10 11 12 12 11 11 10 13
4 3 4 6 8 7 8 1 4 5 3 2 2 2 2 3 3 2 2 3 2 4 3 3 4 7 1 1 4 3 2 2 1 0 1 4 5 5 5 3 3 2 4 5 7 7 10 11 12 12 12 6 8 6
1 5 5 12 7 3 2 4 2 2 2 0 1 1 1 1 3 3 3 3 3 1 1 1 1 2 2 1 2 2 2 2 2 2 2 2 4 6 3 1 1 3 4 5 7 8 9 10 10 8 11 10 9 7
2 2 3 13 6 2 1 2 1 2 3 2 1 1 0 1 2 3 3 1 1 1 3 3 3 2 2 3 2 1 1 1 2 3 1 1 2 3 3 3 3 4 5 4 7 5 5 7 8 8 8 8 7 6
7 7 4 8 6 2 2 2 2 2 2 3 1 2 1 1 2 2 2 2 2 2 3 2 2 2 1 1 1 1 2 1 2 3 1 1 1 1 1 2 2 4 5 5 5 5 5 7 6 7 7 7 8 8
3 3 5 5 4 4 3 1 2 2 1 0 1 1 2 1 1 1 1 3 3 2 2 2 2 2 2 2 1 2 1 2 2 2 1 1 2 3 3 3 2 2 2 3 3 4 6 4 5 6 6 6 5 5
1 3 2 5 1 3 3 2 2 2 1 1 1 2 2 2 2 1 2 2 2 1 1 2 2 3 2 2 1 2 2 2 1 1 3 3 2 1 1 1 2 3 2 2 3 3 4 3 4 4 4 5 7 5
3 2 1 3 1 2 5 1 2 3 2 2 1 2 2 2 2 1 1 2 1 0 2 2 2 2 4 2 1 3 4 2 2 2 2 2 3 3 3 3 3 3 3 1 2 3 4 5 4 3 4 5 5 3
1 2 2 3 3 2 2 2 3 3 2 2 3 2 3 3 2 1 2 2 2 1 1 2 1 2 3 3 3 3 4 2 2 2 2 2 3 3 3 3 4 3 2 3 4 4 5 4 4 3 4 5 5 5
2 2 0 3 2 1 3 2 2 2 3 2 2 1 2 2 2 3 3 3 3 2 1 1 2 3 4 3 3 1 4 3 2 4 4 3 2 2 2 2 3 2 1 3 3 4 3 3 3 3 4 3 5 6
1 1 1 3 2 1 3 2 4 4 3 2 4 0 2 2 1 4 2 3 3 2 2 2 2 4 4 3 3 3 3 4 2 5 3 4 3 3 2 2 1 1 2 2 2 3 4 4 3 4 4 5 5 5
1 1 1 1 2 3 3 2 2 1 2 4 3 3 2 4 5 2 2 4 3 2 3 5 4 4 5 4 4 2 2 3 3 2 2 4 5 5 4 3 3 2 1 2 2 1 2 5 4 4 3 2 3 4
2 2 3 3 2 1 3 3 2 2 1 3 2 4 4 2 2 2 2 1 2 2 4 4 4 4 4 4 2 1 2 2 1 3 5 5 4 3 3 2 1 3 2 3 2 1 2 1 4 4 4 4 3 3
1 1 2 4 2 3 2 2 2 2 2 2 3 1 1 2 2 2 2 2 2 1 3 4 1 3 4 4 4 4 4 4 1 4 5 4 2 4 3 3 2 2 2 2 1 4 4 3 1 1 4 4 3 4
3 2 3 3 3 4 1 1 1 1 1 1 3 2 2 1 0 1 2 2 1 2 2 4 2 3 5 5 5 5 4 4 5 4 3 2 0 2 2 2 4 3 1 2 4 3 1 2 1 1 2 1 1 4
3 2 4 4 3 1 3 2 1 1 1 0 1 1 3 2 1 2 2 3 3 2 3 3 4 4 4 5 4 5 3 3 5 6 5 2 2 3 2 2 2 3 3 2 2 4 3 3 3 4 4 3 3 3
2 4 3 3 1 3 3 3 4 3 4 3 3 2 2 2 3 2 1 2 2 1 2 5 5 3 2 2 3 3 6 4 4 4 6 4 4 5 5 4 4 4 4 3 2 3 1 4 3 4 5 6 5 5
6 6 7 4 4 5 5 3 4 3 4 4 4 5 4 1 3 2 1 2 2 4 5 5 4 3 4 4 3 2 5 4 6 7 6 6 5 5 4 4 4 4 5 4 6 6 5 3 4 8 11 12 12 12
Wind_Direction
220 215 214 215 218 227 249 254 248 256 260 249 239 231 199 180 165 129 222 205 202 231 256 222 259 275 235 190 147 131 89 243 46 98 134 213 183 204 202 222 253 212 188 173 299 233 265 1 359 315 262 299 335 334
210 211 201 202 210 225 239 238 239 242 243 228 213 190 163 154 164 172 231 182 220 254 253 258 262 268 291 25 120 104 68 75 125 114 224 215 257 101 139 240 121 277 171 240 246 222 221 250 233 267 288 280 302 302
209 208 198 199 208 213 216 211 210 202 211 198 178 171 178 186 190 205 11 304 245 278 308 280 251 261 248 333 114 139 204 133 133 139 109 236 186 147 155 233 219 283 286 244 352 300 273 265 278 9 335 237 219 71
196 194 196 199 205 208 208 206 192 178 151 156 161 171 176 192 209 217 235 205 246 290 163 285 13 343 324 281 204 186 206 334 124 121 153 242 180 163 216 219 197 187 1 286 282 295 293 292 283 318 309 331 98 173
196 199 197 200 214 202 202 200 193 182 178 174 170 180 185 185 209 264 269 268 294 174 293 292 309 265 248 256 220 214 198 218 230 246 170 212 209 81 246 254 235 165 227 214 253 280 268 270 305 244 266 274 191 153
197 198 197 200 211 201 195 192 199 197 204 206 213 223 225 222 192 51 341 323 290 349 70 305 277 272 247 237 261 204 210 209 191 182 213 234 228 116 211 234 210 242 244 244 257 262 262 275 291 272 267 259 247 141
196 196 197 200 204 196 198 204 206 209 210 220 227 224 230 224 161 162 193 242 324 101 160 296 280 251 215 204 216 232 199 205 153 223 217 211 266 208 206 256 260 267 277 269 260 267 274 2 271 192 221 65 112 125
195 193 196 201 204 205 206 211 217 224 221 228 237 235 236 235 241 267 236 160 22 104 234 243 261 344 102 80 335 203 134 111 260 208 258 196 208 191 243 242 247 249 248 252 248 220 190 169 186 174 137 135 125 124
187 188 193 203 216 214 211 216 220 222 236 228 184 353 357 215 206 210 176 162 89 282 238 213 223 260 17 21 253 343 148 209 215 204 211 159 212 223 225 226 234 238 244 295 343 282 254 170 160 148 155 152 142 144
175 182 190 199 205 212 218 218 223 225 223 216 223 188 208 206 202 104 80 159 206 222 224 242 249 231 142 145 246 198 165 214 215 225 151 194 246 240 230 238 252 253 260 198 215 250 171 171 174 175 173 167 154 149
171 187 197 209 220 233 240 247 247 245 240 193 186 206 79 153 139 176 167 190 178 234 209 219 207 227 194 176 209 213 200 231 245 235 167 234 252 233 227 230 239 250 254 262 253 192 195 180 170 167 165 152 151 154
195 212 214 245 265 263 261 254 243 227 172 185 170 118 127 225 186 194 173 204 191 221 202 188 210 186 179 114 186 216 217 191 252 89 191 258 322 9 15 251 262 271 269 252 249 249 166 165 172 170 164 155 154 153
235 236 263 267 259 247 263 272 245 159 131 134 208 153 183 169 208 205 183 208 203 213 200 147 122 127 111 201 194 215 240 228 132 197 205 239 2 15 16 8 352 359 345 318 257 179 148 148 150 157 155 150 144 134
248 258 269 262 248 267 280 256 191 150 165 200 183 188 204 181 239 208 200 195 224 160 165 135 104 141 180 165 206 223 229 19 253 223 230 29 17 347 359 349 0 356 1 10 45 122 130 136 139 147 150 141 135 139
265 273 268 269 258 269 259 265 161 167 196 216 200 219 211 240 4 300 267 291 189 157 135 94 80 146 199 152 208 202 285 249 205 232 75 344 3 7 5 357 351 1 9 40 79 112 120 130 131 124 129 130 126 129
270 265 233 209 232 278 142 112 111 208 238 228 229 287 338 287 257 318 318 308 174 177 121 110 154 176 204 195 173 215 242 233 86 40 359 10 15 346 351 348 343 4 62 75 94 115 117 124 129 123 111 118 129 138
199 233 223 160 144 140 164 225 201 204 192 247 197 181 252 264 286 277 261 264 296 115 188 169 167 215 163 226 211 25 48 33 103 196 105 61 1 321 317 333 351 52 85 98 102 109 113 114 115 115 114 103 106 103
10 264 195 160 168 272 190 219 248 185 225 236 299 104 227 252 284 273 293 310 37 302 92 196 251 205 179 332 54 49 45 5 43 31 55 21 322 306 293 227 78 98 85 84 105 112 120 121 119 115 122 122 111 114
248 328 225 188 176 215 217 263 178 247 224 193 195 153 213 257 267 290 289 300 354 90 93 30 63 40 79 49 41 20 14 19 311 301 196 154 328 348 36 67 76 88 101 105 120 123 125 126 125 132 134 137 139 149
244 249 234 190 203 261 246 250 221 255 217 211 129 158 128 360 308 308 342 15 36 23 48 56 71 70 62 86 45 346 313 315 285 301 160 345 334 291 116 100 85 100 97 98 102 114 120 115 129 137 147 151 152 169
159 189 180 170 203 216 248 234 222 209 148 276 127 180 141 225 246 355 32 322 63 50 115 85 104 119 105 92 49 310 348 334 333 356 21 102 28 52 63 91 110 99 97 109 127 124 112 128 140 152 161 151 151 157
128 253 237 198 170 270 233 235 202 197 158 182 163 209 192 189 154 185 185 72 53 76 51 111 113 134 117 87 351 316 293 305 291 91 51 103 116 107 126 129 108 97 98 101 93 112 120 131 125 130 136 138 143 149
294 242 41 71 337 258 264 1 219 198 182 216 166 198 202 155 183 128 95 83 112 66 119 120 138 102 114 179 39 7 15 14 53 63 46 59 70 65 54 57 86 114 110 88 117 103 115 102 113 110 122 131 141 130
34 66 146 218 229 246 25 276 228 209 139 186 198 217 170 164 177 222 170 121 148 137 102 140 139 120 114 89 64 25 358 14 52 41 90 69 77 55 55 55 50 39 100 123 102 104 120 124 128 124 144 144 153 158
100 295 94 249 262 226 240 247 260 162 215 243 133 190 170 144 176 219 189 157 157 136 141 141 90 90 118 116 103 64 4 9 41 69 27 51 86 78 69 67 79 90 67 86 114 129 129 132 134 146 160 157 172 169
230 169 341 340 299 234 269 258 207 217 158 216 214 168 130 175 141 230 104 142 131 116 92 63 98 111 75 69 96 49 8 347 43 82 37 20 36 44 62 120 164 14 15 49 119 151 160 156 165 183 181 184 200 185
244 109 199 276 289 298 279 252 302 318 184 214 183 168 173 211 227 121 80 7 84 69 74 44 27 85 104 94 67 24 351 11 50 73 72 59 52 37 39 42 48 354 357 50 25 24 172 172 170 183 190 169 189 186
360 359 326 329 285 299 285 297 240 249 55 4 296 198 205 212 150 34 45 13 50 65 85 70 52 73 96 83 62 1 7 332 165 99 96 79 63 48 26 35 65 37 41 34 13 40 23 359 167 179 178 184 190 180
318 41 298 246 280 239 241 294 353 65 353 334 318 73 100 53 12 28 18 347 341 36 140 129 99 112 107 97 70 46 27 3 153 182 196 132 108 336 353 347 326 187 156 126 59 24 20 21 21 191 194 181 184 158
17 344 284 232 186 253 114 83 55 38 38 109 122 125 102 88 246 319 311 282 276 255 100 118 143 187 169 144 123 84 30 40 45 62 90 93 233 293 318 358 353 348 286 198 163 157 140 313 298 342 23 74 183 159
276 267 250 228 258 115 119 124 84 106 256 233 346 50 107 136 44 7 9 335 348 37 86 85 59 48 68 58 100 124 103 44 47 36 26 352 339 15 347 351 329 320 316 317 215 184 176 197 203 207 217 215 201 170
292 252 296 290 303 117 130 204 187 212 176 181 176 106 129 186 167 158 7 2 318 79 1 123 110 81 52 72 84 90 91 87 59 44 29 17 7 351 355 3 353 346 345 344 11 7 197 198 241 217 201 204 192 174
282 268 264 257 234 202 205 196 219 202 171 203 167 175 171 179 148 140 354 50 343 77 85 81 91 84 69 63 47 61 107 104 102 87 71 53 34 20 16 360 343 4 26 25 27 18 13 38 39 62 70 76 81 82